Location: Unspecified
(0.0000°N, 0.0000°E)
Time: 23:51:14
(UTC+00:00)

Altair - Visible Passes

Search period start: 22 November 2017 00:00
Search period end: 02 December 2017 00:00
Orbit: 1501 x 1683 km, 47.2° (Epoch: 22 November)

Date Brightness Start Highest point End Pass type
(mag) Time Alt. Az. Time Alt. Az. Time Alt. Az.
22 Nov 9.9 03:57:12 10° S 04:03:07 18° SE 04:08:52 10° E visible
22 Nov 8.7 18:47:48 10° WNW 18:57:03 45° SW 19:06:35 10° SSE visible
23 Nov 9.9 03:32:43 10° SSE 03:37:51 15° SE 03:42:51 10° ESE visible
23 Nov 8.6 18:22:26 10° WNW 18:31:51 51° SW 18:41:33 10° SSE visible
24 Nov 10.0 03:08:26 10° SSE 03:12:33 13° SE 03:16:36 10° ESE visible
24 Nov 7.8 05:08:11 10° SW 05:17:45 74° SE 05:26:58 10° NE visible
24 Nov 8.5 17:57:07 10° NW 18:06:39 57° SW 18:16:30 10° SSE visible
25 Nov 10.0 02:44:37 10° SSE 02:47:15 11° SE 02:49:52 10° ESE visible
25 Nov 7.9 04:43:04 10° SSW 04:52:36 67° SE 05:01:46 10° NE visible
25 Nov 10.3 19:44:37 10° WSW 19:47:00 11° SW 19:49:25 10° SSW visible
26 Nov 8.0 04:17:58 10° SSW 04:27:28 60° SE 04:36:32 10° NE visible
26 Nov 10.2 19:17:37 10° WSW 19:21:40 13° SW 19:25:46 10° SSW visible
27 Nov 8.2 03:52:55 10° SSW 04:02:17 53° SE 04:11:17 10° NE visible
27 Nov 10.1 18:51:14 10° WSW 18:56:21 15° SW 19:01:33 10° SSW visible
28 Nov 8.3 03:27:53 10° SSW 03:37:07 47° SE 03:45:58 10° ENE visible
28 Nov 10.0 18:25:08 10° W 18:31:03 17° SW 18:37:06 10° S visible
29 Nov 8.5 03:02:53 10° SSW 03:11:57 42° SE 03:20:37 10° ENE visible
29 Nov 7.8 05:07:41 10° WSW 05:16:28 41° NW 05:25:00 10° NNE visible
29 Nov 10.0 17:59:12 10° W 18:05:46 20° SW 18:12:30 10° S visible
30 Nov 8.6 02:37:55 10° SSW 02:46:45 38° SE 02:55:13 10° ENE visible
30 Nov 7.7 04:42:15 10° WSW 04:51:18 46° NW 05:00:04 10° NNE visible
01 Dec 8.7 02:13:00 10° SSW 02:21:33 33° SE 02:29:47 10° ENE visible
01 Dec 7.5 04:16:52 10° SW 04:26:09 52° NW 04:35:07 10° NNE visible
